TimePDT,TemperatureF,Dew PointF,Humidity,Sea Level PressureIn,VisibilityMPH,Wind Direction,Wind SpeedMPH,Gust SpeedMPH,PrecipitationIn,Events,Conditions,WindDirDegrees,DateUTC
12:15 AM,51.8,32.0,47,30.22,10.0,Calm,Calm,-,N/A,,Clear,0,2013-08-23 07:15:00
12:35 AM,53.6,30.2,41,30.22,10.0,ESE,3.5,-,N/A,,Clear,120,2013-08-23 07:35:00
12:55 AM,53.6,28.4,38,30.21,10.0,Calm,Calm,-,N/A,,Clear,0,2013-08-23 07:55:00
1:15 AM,50.0,28.4,43,30.21,10.0,East,4.6,-,N/A,,Clear,100,2013-08-23 08:15:00
1:35 AM,53.6,24.8,33,30.21,10.0,SSE,3.5,-,N/A,,Clear,150,2013-08-23 08:35:00
1:55 AM,50.0,26.6,40,30.20,10.0,Calm,Calm,-,N/A,,Clear,0,2013-08-23 08:55:00
2:15 AM,44.6,28.4,53,30.20,10.0,WSW,3.5,-,N/A,,Clear,240,2013-08-23 09:15:00
2:35 AM,44.6,28.4,53,30.20,10.0,Calm,Calm,-,N/A,,Clear,0,2013-08-23 09:35:00
2:55 AM,48.2,28.4,46,30.20,10.0,West,9.2,-,N/A,,Clear,280,2013-08-23 09:55:00
3:15 AM,44.6,28.4,53,30.20,10.0,Calm,Calm,-,N/A,,Clear,0,2013-08-23 10:15:00
3:35 AM,44.6,28.4,53,30.20,10.0,Calm,Calm,-,N/A,,Clear,0,2013-08-23 10:35:00
3:55 AM,41.0,28.4,61,30.20,10.0,Calm,Calm,-,N/A,,Clear,0,2013-08-23 10:55:00
4:15 AM,44.6,30.2,57,30.19,10.0,Calm,Calm,-,N/A,,Clear,0,2013-08-23 11:15:00
4:35 AM,44.6,28.4,53,30.19,10.0,Calm,Calm,-,N/A,,Clear,0,2013-08-23 11:35:00
4:55 AM,46.4,26.6,46,30.19,10.0,Calm,Calm,-,N/A,,Clear,0,2013-08-23 11:55:00
5:15 AM,46.4,26.6,46,30.19,10.0,Calm,Calm,-,N/A,,Clear,0,2013-08-23 12:15:00
5:35 AM,46.4,28.4,50,30.19,10.0,Calm,Calm,-,N/A,,Clear,0,2013-08-23 12:35:00
5:55 AM,46.4,26.6,46,30.19,10.0,South,6.9,-,N/A,,Clear,180,2013-08-23 12:55:00
6:15 AM,44.6,26.6,49,30.19,10.0,SSW,5.8,-,N/A,,Clear,210,2013-08-23 13:15:00
6:35 AM,39.2,26.6,61,30.19,10.0,NW,4.6,-,N/A,,Clear,310,2013-08-23 13:35:00
6:55 AM,39.2,28.4,65,30.19,10.0,NNW,3.5,-,N/A,,Clear,340,2013-08-23 13:55:00
7:15 AM,44.6,30.2,57,30.19,10.0,Calm,Calm,-,N/A,,Clear,0,2013-08-23 14:15:00
7:35 AM,50.0,30.2,47,30.19,10.0,Calm,Calm,-,N/A,,Clear,0,2013-08-23 14:35:00
7:55 AM,55.4,26.6,33,30.19,10.0,Calm,Calm,-,N/A,,Clear,0,2013-08-23 14:55:00
8:15 AM,59.0,30.2,34,30.19,10.0,ESE,3.5,-,N/A,,Clear,120,2013-08-23 15:15:00
8:35 AM,59.0,32.0,36,30.19,10.0,SE,6.9,-,N/A,,Clear,140,2013-08-23 15:35:00
8:55 AM,62.6,28.4,27,30.19,10.0,SSE,4.6,-,N/A,,Clear,150,2013-08-23 15:55:00
9:35 AM,66.2,24.8,21,30.18,10.0,Calm,Calm,-,N/A,,Clear,0,2013-08-23 16:35:00
10:15 AM,69.8,21.2,16,30.17,10.0,South,4.6,-,N/A,,Clear,170,2013-08-23 17:15:00
10:35 AM,71.6,21.2,15,30.17,10.0,SE,3.5,-,N/A,,Clear,140,2013-08-23 17:35:00
10:55 AM,73.4,21.2,14,30.17,10.0,East,4.6,-,N/A,,Clear,90,2013-08-23 17:55:00
11:15 AM,73.4,21.2,14,30.17,10.0,ESE,6.9,-,N/A,,Clear,120,2013-08-23 18:15:00
11:35 AM,75.2,19.4,12,30.16,10.0,ESE,10.4,16.1,N/A,,Clear,120,2013-08-23 18:35:00
11:55 AM,77.0,19.4,12,30.16,10.0,ESE,5.8,-,N/A,,Clear,110,2013-08-23 18:55:00
12:15 PM,77.0,17.6,11,30.15,10.0,SE,8.1,-,N/A,,Clear,140,2013-08-23 19:15:00
12:35 PM,77.0,19.4,12,30.15,10.0,SSE,8.1,-,N/A,,Clear,150,2013-08-23 19:35:00
12:55 PM,77.0,19.4,12,30.14,10.0,ESE,9.2,-,N/A,,Clear,110,2013-08-23 19:55:00
1:15 PM,78.8,19.4,11,30.14,10.0,SSE,6.9,18.4,N/A,,Clear,150,2013-08-23 20:15:00
1:35 PM,78.8,19.4,11,30.13,10.0,ESE,5.8,17.3,N/A,,Clear,120,2013-08-23 20:35:00
1:55 PM,78.8,19.4,11,30.13,10.0,ESE,8.1,-,N/A,,Clear,120,2013-08-23 20:55:00
2:15 PM,78.8,19.4,11,30.12,10.0,Calm,Calm,-,N/A,,Clear,0,2013-08-23 21:15:00
2:35 PM,78.8,21.2,12,30.12,10.0,NE,4.6,-,N/A,,Clear,40,2013-08-23 21:35:00
2:55 PM,78.8,23.0,13,30.11,10.0,WNW,16.1,24.2,N/A,,Clear,300,2013-08-23 21:55:00
3:15 PM,80.6,24.8,13,30.10,10.0,WNW,21.9,32.2,N/A,,Clear,290,2013-08-23 22:15:00
3:35 PM,78.8,23.0,13,30.10,10.0,WSW,15.0,24.2,N/A,,Clear,240,2013-08-23 22:35:00
3:55 PM,78.8,24.8,14,30.10,10.0,West,21.9,31.1,N/A,,Clear,280,2013-08-23 22:55:00
4:15 PM,77.0,24.8,14,30.10,10.0,West,23.0,33.4,N/A,,Clear,280,2013-08-23 23:15:00
4:35 PM,77.0,24.8,14,30.09,10.0,WNW,21.9,38.0,N/A,,Clear,290,2013-08-23 23:35:00
4:55 PM,75.2,26.6,17,30.09,10.0,West,18.4,27.6,N/A,,Clear,270,2013-08-23 23:55:00
5:15 PM,75.2,26.6,17,30.09,10.0,West,23.0,31.1,N/A,,Clear,280,2013-08-24 00:15:00
5:35 PM,75.2,26.6,17,30.09,10.0,West,23.0,28.8,N/A,,Clear,270,2013-08-24 00:35:00
5:55 PM,75.2,28.4,18,30.08,10.0,WSW,13.8,27.6,N/A,,Clear,250,2013-08-24 00:55:00
6:15 PM,71.6,28.4,20,30.08,10.0,West,25.3,39.1,N/A,,Clear,280,2013-08-24 01:15:00
6:35 PM,71.6,30.2,22,30.08,10.0,West,21.9,27.6,N/A,,Clear,270,2013-08-24 01:35:00
6:55 PM,69.8,30.2,23,30.08,10.0,West,20.7,27.6,N/A,,Clear,270,2013-08-24 01:55:00
7:15 PM,69.8,30.2,23,30.08,10.0,WSW,10.4,20.7,N/A,,Clear,240,2013-08-24 02:15:00
7:35 PM,68.0,32.0,26,30.08,10.0,WSW,6.9,20.7,N/A,,Clear,240,2013-08-24 02:35:00
7:55 PM,64.4,30.2,28,30.09,10.0,West,10.4,21.9,N/A,,Clear,280,2013-08-24 02:55:00
8:15 PM,64.4,30.2,28,30.09,10.0,NW,10.4,-,N/A,,Clear,320,2013-08-24 03:15:00
8:35 PM,64.4,30.2,28,30.10,10.0,NNE,3.5,-,N/A,,Clear,30,2013-08-24 03:35:00
8:55 PM,62.6,30.2,30,30.11,10.0,NNW,5.8,-,N/A,,Clear,330,2013-08-24 03:55:00
9:15 PM,60.8,30.2,31,30.11,10.0,North,6.9,-,N/A,,Clear,350,2013-08-24 04:15:00
9:35 PM,59.0,30.2,34,30.12,10.0,Calm,Calm,-,N/A,,Clear,0,2013-08-24 04:35:00
9:55 PM,59.0,32.0,36,30.12,10.0,Calm,Calm,-,N/A,,Clear,0,2013-08-24 04:55:00
10:15 PM,57.2,32.0,38,30.12,10.0,Calm,Calm,-,N/A,,Clear,0,2013-08-24 05:15:00
10:35 PM,55.4,32.0,41,30.13,10.0,Calm,Calm,-,N/A,,Clear,0,2013-08-24 05:35:00
10:55 PM,51.8,30.2,44,30.13,10.0,Calm,Calm,-,N/A,,Clear,0,2013-08-24 05:55:00
11:15 PM,51.8,32.0,47,30.14,10.0,Calm,Calm,-,N/A,,Clear,0,2013-08-24 06:15:00
11:35 PM,51.8,30.2,44,30.14,10.0,Calm,Calm,-,N/A,,Clear,0,2013-08-24 06:35:00
11:55 PM,48.2,30.2,50,30.14,10.0,Calm,Calm,-,N/A,,Clear,0,2013-08-24 06:55:00